Location: Newark
(13.6797°N, 8.5297°E)
Time: 01:14:07
(UTC+00:00)

A-11 Canister half - Pass Details

Date: 19 January 2020
Orbit: 1517 x 1683 km, 47.2° (Epoch: 19 February)

Event Time Altitude Azimuth Distance (km) Brightness Sun altitude
Rises 00:54:42 0° 270° (W) 4,726 - -70.1°
Reaches altitude 10° 00:59:23 10° 289° (WNW) 3,714 - -69.0°
Maximum altitude 01:04:52 17° 326° (NW) 3,186 - -67.8°
Drops below altitude 10° 01:10:19 10° 3° (N) 3,675 - -66.6°
Sets 01:14:59 0° 23° (NNE) 4,653 - -65.5°
